When you browse on this site, cookies collect data to enhance your experience and personalize the content and advertising you see.
Visit our Privacy Policy to learn more. By continuing to use the site, you agree to this use of cookies and data.
  • In Schweiz
  • Länderverzeichnis
  • Für 7 Tage
  • Wassertemperatur
  • Satellitenkarten
  • Wetterkarte
  • Widgets
  • user-avatar
    Anmelden

    Stündliche Wetter Yangjinzhuang

    Heute, 24 Mai, Freitag

    Zeit Temperatur Niederschläge Wind Luftdruck Luftfeuchtigkeit
    00:00 +25°C° 0 mm 2 m/S 752 mmHg 21%
    01:00 +25°C° 0 mm 2 m/S 752 mmHg 21%
    02:00 +24°C° 0 mm 2 m/S 752 mmHg 22%
    03:00 +24°C° 0 mm 2 m/S 751 mmHg 22%
    04:00 +24°C° 0 mm 2 m/S 751 mmHg 22%
    05:00 +24°C° 0 mm 2 m/S 751 mmHg 22%
    06:00 +26°C° 0 mm 2 m/S 752 mmHg 22%
    07:00 +29°C° 0 mm 2 m/S 752 mmHg 21%
    08:00 +31°C° 0 mm 2 m/S 752 mmHg 21%
    09:00 +34°C° 0 mm 4 m/S 752 mmHg 18%
    10:00 +37°C° 0 mm 5 m/S 752 mmHg 15%
    11:00 +40°C° 0 mm 6 m/S 752 mmHg 13%
    12:00 +40°C° 0 mm 7 m/S 752 mmHg 12%
    13:00 +40°C° 0 mm 7 m/S 752 mmHg 12%
    14:00 +40°C° 0 mm 7 m/S 751 mmHg 12%
    15:00 +40°C° 0 mm 7 m/S 751 mmHg 13%
    16:00 +39°C° 0 mm 6 m/S 751 mmHg 14%
    17:00 +39°C° 0 mm 5 m/S 750 mmHg 15%
    18:00 +36°C° 0 mm 5 m/S 750 mmHg 16%
    19:00 +34°C° 0 mm 4 m/S 751 mmHg 16%
    20:00 +33°C° 0 mm 3 m/S 751 mmHg 17%
    21:00 +31°C° 0 mm 3 m/S 751 mmHg 18%
    22:00 +30°C° 0 mm 2 m/S 751 mmHg 19%
    23:00 +29°C° 0 mm 2 m/S 752 mmHg 20%

    Morgen, 25 Mai, Samstag

    Zeit Temperatur Niederschläge Wind Luftdruck Luftfeuchtigkeit
    00:00 +28°C° 0 mm 2 m/S 752 mmHg 22%
    01:00 +27°C° 0 mm 2 m/S 751 mmHg 24%
    02:00 +26°C° 0 mm 3 m/S 751 mmHg 26%
    03:00 +26°C° 0 mm 2 m/S 751 mmHg 29%
    04:00 +25°C° 0 mm 2 m/S 751 mmHg 32%
    05:00 +24°C° 0 mm 2 m/S 751 mmHg 35%
    06:00 +26°C° 0 mm 2 m/S 752 mmHg 34%
    07:00 +28°C° 0 mm 2 m/S 752 mmHg 32%
    08:00 +30°C° 0 mm 2 m/S 752 mmHg 31%
    09:00 +33°C° 0 mm 3 m/S 752 mmHg 29%
    10:00 +36°C° 0 mm 3 m/S 752 mmHg 27%
    11:00 +38°C° 0 mm 3 m/S 752 mmHg 24%
    12:00 +40°C° 0 mm 4 m/S 752 mmHg 23%
    13:00 +41°C° 0 mm 5 m/S 751 mmHg 23%
    14:00 +42°C° 0 mm 6 m/S 750 mmHg 22%
    15:00 +41°C° 0 mm 6 m/S 750 mmHg 23%
    16:00 +40°C° 0 mm 6 m/S 750 mmHg 25%
    17:00 +40°C° 0 mm 7 m/S 749 mmHg 26%
    18:00 +36°C° 0 mm 6 m/S 750 mmHg 29%
    19:00 +34°C° 0 mm 5 m/S 750 mmHg 33%
    20:00 +32°C° 0 mm 5 m/S 750 mmHg 36%
    21:00 +29°C° 0.5 mm 4 m/S 751 mmHg 43%
    22:00 +28°C° 0.5 mm 4 m/S 751 mmHg 50%
    23:00 +26°C° 0.5 mm 4 m/S 752 mmHg 57%

    übermorgen, 26 Mai, Sonntag

    Zeit Temperatur Niederschläge Wind Luftdruck Luftfeuchtigkeit
    00:00 +25°C° 1.7 mm 4 m/S 752 mmHg 63%
    01:00 +24°C° 1.7 mm 3 m/S 752 mmHg 68%
    02:00 +24°C° 1.7 mm 3 m/S 752 mmHg 74%
    03:00 +22°C° 3 mm 3 m/S 752 mmHg 78%
    04:00 +22°C° 3 mm 3 m/S 753 mmHg 82%
    05:00 +22°C° 3 mm 3 m/S 753 mmHg 86%
    06:00 +22°C° 2.9 mm 3 m/S 754 mmHg 84%
    07:00 +22°C° 2.9 mm 4 m/S 754 mmHg 81%
    08:00 +22°C° 2.9 mm 4 m/S 755 mmHg 78%
    09:00 +21°C° 0.2 mm 4 m/S 755 mmHg 75%
    10:00 +20°C° 0.2 mm 3 m/S 755 mmHg 71%
    11:00 +20°C° 0.2 mm 3 m/S 755 mmHg 67%
    12:00 +20°C° 0.6 mm 3 m/S 755 mmHg 69%
    13:00 +19°C° 0.6 mm 3 m/S 755 mmHg 71%
    14:00 +19°C° 0.6 mm 2 m/S 755 mmHg 72%
    15:00 +20°C° 0 mm 2 m/S 755 mmHg 70%
    16:00 +21°C° 0 mm 2 m/S 755 mmHg 67%
    17:00 +21°C° 0 mm 2 m/S 755 mmHg 64%
    18:00 +21°C° 0 mm 2 m/S 755 mmHg 64%
    19:00 +20°C° 0 mm 2 m/S 756 mmHg 65%
    20:00 +20°C° 0 mm 1 m/S 757 mmHg 65%
    21:00 +18°C° 0 mm 3 m/S 757 mmHg 59%
    22:00 +18°C° 0 mm 4 m/S 758 mmHg 52%
    23:00 +17°C° 0 mm 5 m/S 759 mmHg 46%

    27 Mai, Montag

    Zeit Temperatur Niederschläge Wind Luftdruck Luftfeuchtigkeit
    00:00 +17°C° 0 mm 4 m/S 759 mmHg 46%
    01:00 +17°C° 0 mm 4 m/S 759 mmHg 46%
    02:00 +16°C° 0 mm 3 m/S 759 mmHg 47%
    03:00 +15°C° 0 mm 4 m/S 759 mmHg 46%
    04:00 +14°C° 0 mm 4 m/S 759 mmHg 45%
    05:00 +14°C° 0 mm 4 m/S 759 mmHg 45%
    06:00 +16°C° 0 mm 5 m/S 760 mmHg 41%
    07:00 +18°C° 0 mm 7 m/S 761 mmHg 37%
    08:00 +20°C° 0 mm 8 m/S 761 mmHg 34%
    09:00 +22°C° 0 mm 7 m/S 761 mmHg 31%
    10:00 +23°C° 0 mm 7 m/S 762 mmHg 28%
    11:00 +24°C° 0 mm 6 m/S 762 mmHg 24%
    12:00 +26°C° 0 mm 6 m/S 761 mmHg 23%
    13:00 +27°C° 0 mm 5 m/S 761 mmHg 22%
    14:00 +28°C° 0 mm 5 m/S 760 mmHg 21%
    15:00 +28°C° 0 mm 5 m/S 760 mmHg 21%
    16:00 +28°C° 0 mm 4 m/S 760 mmHg 22%
    17:00 +28°C° 0 mm 4 m/S 759 mmHg 22%
    18:00 +26°C° 0 mm 3 m/S 759 mmHg 25%
    19:00 +24°C° 0 mm 2 m/S 760 mmHg 29%
    20:00 +22°C° 0 mm 1 m/S 760 mmHg 32%
    21:00 +22°C° 0 mm 1 m/S 760 mmHg 32%
    22:00 +20°C° 0 mm 2 m/S 761 mmHg 33%
    23:00 +19°C° 0 mm 2 m/S 761 mmHg 33%

    28 Mai, Dienstag

    Zeit Temperatur Niederschläge Wind Luftdruck Luftfeuchtigkeit
    00:00 +19°C° 0 mm 2 m/S 761 mmHg 33%
    01:00 +18°C° 0 mm 3 m/S 761 mmHg 33%
    02:00 +18°C° 0 mm 3 m/S 761 mmHg 33%
    03:00 +18°C° 0 mm 3 m/S 760 mmHg 33%
    04:00 +17°C° 0 mm 2 m/S 760 mmHg 33%
    05:00 +17°C° 0 mm 2 m/S 760 mmHg 34%
    06:00 +19°C° 0 mm 2 m/S 760 mmHg 33%
    07:00 +21°C° 0 mm 2 m/S 760 mmHg 32%
    08:00 +24°C° 0 mm 2 m/S 760 mmHg 31%
    09:00 +26°C° 0 mm 3 m/S 760 mmHg 27%
    10:00 +28°C° 0 mm 3 m/S 759 mmHg 23%
    11:00 +30°C° 0 mm 4 m/S 759 mmHg 19%
    12:00 +32°C° 0 mm 4 m/S 758 mmHg 17%
    13:00 +34°C° 0 mm 4 m/S 757 mmHg 16%
    14:00 +35°C° 0 mm 4 m/S 757 mmHg 14%
    15:00 +34°C° 0 mm 3 m/S 756 mmHg 15%
    16:00 +34°C° 0 mm 3 m/S 756 mmHg 16%
    17:00 +34°C° 0 mm 3 m/S 755 mmHg 16%
    18:00 +31°C° 0 mm 3 m/S 755 mmHg 18%
    19:00 +29°C° 0 mm 3 m/S 755 mmHg 19%
    20:00 +26°C° 0 mm 3 m/S 756 mmHg 20%
    21:00 +26°C° 0 mm 3 m/S 756 mmHg 20%
    22:00 +25°C° 0 mm 3 m/S 755 mmHg 21%
    23:00 +24°C° 0 mm 3 m/S 755 mmHg 21%

    29 Mai, Mittwoch

    Zeit Temperatur Niederschläge Wind Luftdruck Luftfeuchtigkeit
    00:00 +24°C° 0 mm 2 m/S 755 mmHg 23%
    01:00 +23°C° 0 mm 2 m/S 755 mmHg 24%
    02:00 +21°C° 0 mm 2 m/S 755 mmHg 26%
    03:00 +21°C° 0 mm 2 m/S 754 mmHg 27%
    04:00 +20°C° 0 mm 2 m/S 754 mmHg 29%
    05:00 +20°C° 0 mm 1 m/S 754 mmHg 31%
    06:00 +21°C° 0 mm 2 m/S 754 mmHg 30%
    07:00 +24°C° 0 mm 2 m/S 754 mmHg 29%
    08:00 +26°C° 0 mm 3 m/S 754 mmHg 29%
    09:00 +28°C° 0 mm 3 m/S 753 mmHg 26%
    10:00 +30°C° 0 mm 4 m/S 753 mmHg 24%
    11:00 +33°C° 0 mm 4 m/S 752 mmHg 21%
    12:00 +35°C° 0 mm 4 m/S 751 mmHg 19%
    13:00 +36°C° 0 mm 4 m/S 751 mmHg 17%
    14:00 +37°C° 0 mm 4 m/S 750 mmHg 14%
    15:00 +37°C° 0 mm 4 m/S 749 mmHg 15%
    16:00 +37°C° 0 mm 4 m/S 749 mmHg 15%
    17:00 +37°C° 0 mm 4 m/S 749 mmHg 15%
    18:00 +35°C° 0 mm 4 m/S 749 mmHg 17%
    19:00 +33°C° 0 mm 3 m/S 750 mmHg 19%
    20:00 +30°C° 0 mm 3 m/S 750 mmHg 20%
    21:00 +29°C° 0 mm 4 m/S 751 mmHg 25%
    22:00 +27°C° 0 mm 4 m/S 752 mmHg 30%
    23:00 +26°C° 0 mm 5 m/S 753 mmHg 35%
    Mehr zeigen